KE0RKB Weather Reports


time (UTC)temp
C
wind
direction
speed
KPH
gust
KPH
rain 1hr
cm
rain 24hr
cm
rain mn
cm
humidity
%
barometer
mb
20260505070045 7 1 3.2 9.7 0.00 0.05 0.00 89 1012.8
20260505064544 7 1 0.0 1.6 0.00 0.05 0.00 91 1012.9
20260505063043 7 0 0.0 4.8 0.03 0.05 0.00 91 1012.7
20260505061541 7 1 3.2 4.8 0.03 0.05 0.00 91 1012.8
20260505060038 7 0 0.0 3.2 0.03 0.05 0.00 91 1013.0
20260505054550 7 1 1.6 8.0 0.03 0.05 0.05 91 1012.7
20260505053102 7 0 0.0 0.0 0.03 0.03 0.03 90 1012.9
20260505051545 7 1 1.6 4.8 0.03 0.03 0.03 90 1013.1
20260505041543 9 1 6.4 9.7 0.00 0.00 0.00 74 1013.0
20260505040045 9 1 6.4 11.3 0.00 0.00 0.00 72 1012.7
20260505034543 9 1 4.8 9.7 0.00 0.00 0.00 72 1012.4
20260505033046 10 1 4.8 9.7 0.00 0.00 0.00 72 1012.0
20260505031536 10 1 8.0 12.9 0.00 0.00 0.00 71 1011.9
20260505030041 10 1 4.8 8.0 0.00 0.00 0.00 70 1011.9
20260505024544 10 1 8.0 16.1 0.00 0.00 0.00 71 1011.5
20260505023045 10 1 11.3 17.7 0.00 0.00 0.00 71 1011.6
20260505021537 10 1 9.7 14.5 0.00 0.00 0.00 70 1011.3
20260505020041 11 1 11.3 17.7 0.00 0.00 0.00 66 1011.3
20260505014544 11 1 6.4 16.1 0.00 0.00 0.00 64 1010.9
20260505013043 11 1 6.4 19.3 0.00 0.00 0.00 63 1011.2
20260505011550 11 1 19.3 29.0 0.00 0.00 0.00 61 1011.2
20260505010048 12 1 20.9 30.6 0.00 0.00 0.00 55 1010.7
20260505004536 13 1 12.9 29.0 0.00 0.00 0.00 46 1010.4
20260505003041 15 360 17.7 33.8 0.00 0.00 0.00 38 1010.1
20260505001542 15 1 22.5 32.2 0.00 0.00 0.00 37 1009.8
20260505000040 16 1 29.0 37.0 0.00 0.00 0.00 37 1009.8
20260504234538 16 1 19.3 37.0 0.00 0.00 0.00 34 1009.8
20260504233044 16 1 25.7 35.4 0.00 0.00 0.00 34 1009.7
20260504231543 17 1 27.4 37.0 0.00 0.00 0.00 33 1009.6
20260504230041 17 360 24.1 33.8 0.00 0.00 0.00 32 1009.4
20260504224541 17 1 27.4 45.1 0.00 0.00 0.00 33 1009.2
20260504223048 17 1 35.4 48.3 0.00 0.00 0.00 33 1009.0
20260504221544 17 360 35.4 49.9 0.00 0.00 0.00 31 1008.7
20260504220107 18 1 25.7 41.8 0.00 0.00 0.00 27 1008.4
20260504214551 19 1 30.6 45.1 0.00 0.00 0.00 25 1008.3
20260504213054 20 1 17.7 27.4 0.00 0.00 0.00 22 1008.8
20260504211544 19 1 24.1 33.8 0.00 0.00 0.00 23 1008.9
20260504210047 20 1 24.1 33.8 0.00 0.00 0.00 22 1008.9
20260504204543 21 1 19.3 29.0 0.00 0.00 0.00 19 1008.9
20260504203041 21 1 11.3 32.2 0.00 0.00 0.00 19 1008.9
20260504201541 21 1 14.5 33.8 0.00 0.00 0.00 19 1009.0
20260504200054 20 1 14.5 29.0 0.00 0.00 0.00 19 1009.0
20260504194546 21 1 16.1 30.6 0.00 0.00 0.00 19 1009.1
20260504193045 21 1 14.5 25.7 0.00 0.00 0.00 19 1008.9
20260504191553 20 1 12.9 24.1 0.00 0.00 0.00 20 1008.9
20260504190050 21 1 9.7 19.3 0.00 0.00 0.00 21 1009.0
20260504184552 21 1 16.1 27.4 0.00 0.00 0.00 19 1009.1
20260504183050 21 1 14.5 29.0 0.00 0.00 0.00 20 1009.0
20260504181550 21 1 9.7 24.1 0.00 0.00 0.00 18 1009.2
20260504180044 22 1 4.8 25.7 0.00 0.00 0.00 20 1009.5
20260504174548 21 1 9.7 32.2 0.00 0.00 0.00 19 1009.9
20260504173043 20 1 14.5 27.4 0.00 0.00 0.00 21 1010.0
20260504171542 21 1 17.7 30.6 0.00 0.00 0.00 21 1010.2
20260504081547 10 1 11.3 17.7 0.00 0.00 0.00 44 1011.9